Flag for Belgium Weather past 2 weeks in Antwerp, Belgium

Now
45 °F

Clear.


Feels Like: 41 °F
Forecast: 40 / 62 °F
Wind: 7 mph from Northeast

Location: Antwerp / Deurne

Current Time: Apr 19, 2015 at 2:09:29 AM

Latest Report: Apr 19, 2015 at 1:20 AM


Visibility: 10 mi

Pressure: 30.30 "Hg

Humidity: 76%

Dew point: 37 °F

Location of AntwerpLocation

Historic Weather in Antwerp — Graph

°F

Antwerp temperature yesterday

Maximum temperature yesterday: 59 °F (at 4:50 PM)
Minimum temperature yesterday: 39 °F (at 4:50 AM)
Average temperature yesterday: 49 °F

Past Weeks' High & Low Weather Summary

 TemperatureHumidityPressure
High77 °F (Apr 15, 4:50 PM)94% (Apr 11, 10:20 AM)30.66 "Hg (Apr 11, 10:20 AM)
Low32 °F (Apr 7, 7:20 AM)23% (Apr 10, 4:20 PM)29.92 "Hg (Apr 16, 6:50 PM)
Average51 °F66%30.27 "Hg
* Reported Apr 4 12:20 AM — Apr 19 12:50 AM, Antwerp, Weather by CustomWeather, © 2015

Note: Actual official high and low records may vary slightly from our data, if they occured in-between our weather recording intervals... More about our weather records

Advertising

Antwerp weather history for previous 24 hours

 ConditionsComfort  
Time TempWeatherWind HumidityBarometerVisibility
12:50 AM
Sun, Apr 19
45 °FClear.8 mph76%30.27 "Hg10 mi
12:20 AM45 °FClear.7 mph76%30.30 "Hg10 mi
11:50 PM
Sat, Apr 18
46 °FClear.9 mph71%30.30 "Hg10 mi
11:20 PM46 °FClear.9 mph71%30.30 "Hg10 mi
10:50 PM48 °FPassing clouds.9 mph62%30.30 "HgN/A
10:20 PM48 °FClear.10 mph62%30.30 "Hg10 mi
9:50 PM50 °FClear.8 mph62%30.30 "Hg10 mi
9:20 PM52 °FPassing clouds.8 mph58%30.30 "HgN/A
8:50 PM54 °FPassing clouds.8 mph54%30.27 "HgN/A
8:20 PM54 °FSunny.9 mph47%30.27 "Hg10 mi
7:50 PM55 °FSunny.12 mph38%30.27 "Hg10 mi
7:20 PM57 °FSunny.13 mph39%30.27 "Hg10 mi
6:50 PM57 °FPassing clouds.13 mph39%30.27 "HgN/A
6:20 PM57 °FPassing clouds.12 mph41%30.27 "HgN/A
5:50 PM57 °FSunny.13 mph41%30.27 "Hg10 mi
5:20 PM57 °FPassing clouds.12 mph41%30.27 "HgN/A
4:50 PM59 °FPassing clouds.13 mph39%30.30 "HgN/A
4:20 PM57 °FPassing clouds.14 mph39%30.30 "HgN/A
3:50 PM57 °FPassing clouds.13 mph39%30.30 "HgN/A
3:20 PM57 °FPassing clouds.12 mph41%30.33 "HgN/A
2:50 PM57 °FPassing clouds.13 mph41%30.33 "HgN/A
2:20 PM57 °FPassing clouds.13 mph39%30.33 "HgN/A
1:50 PM55 °FPassing clouds.14 mph41%30.33 "HgN/A
1:20 PM55 °FPassing clouds.13 mph44%30.33 "HgN/A
12:50 PM55 °FPassing clouds.14 mph38%30.33 "HgN/A
12:20 PM55 °FPassing clouds.13 mph44%30.36 "HgN/A
11:50 AM54 °FPassing clouds.13 mph47%30.36 "HgN/A
11:20 AM54 °FPassing clouds.12 mph51%30.36 "HgN/A
10:50 AM52 °FPassing clouds.9 mph58%30.36 "HgN/A
10:20 AM50 °FPassing clouds.8 mph67%30.36 "HgN/A
9:50 AM48 °FSunny.9 mph71%30.36 "Hg10 mi
9:20 AM46 °FSunny.7 mph76%30.36 "Hg10 mi
8:50 AM45 °FPassing clouds.7 mph76%30.33 "HgN/A
8:20 AM43 °FSunny.8 mph81%30.33 "Hg10 mi
7:50 AM41 °FSunny.7 mph81%30.33 "Hg10 mi
7:20 AM39 °FClear.5 mph87%30.30 "Hg10 mi
6:50 AM39 °FClear.5 mph87%30.30 "Hg10 mi
6:20 AM39 °FClear.6 mph87%30.30 "Hg10 mi
5:50 AM39 °FClear.6 mph87%30.30 "Hg10 mi
5:20 AM39 °FClear.7 mph87%30.30 "Hg10 mi
4:50 AM39 °FClear.6 mph87%30.30 "Hg10 mi
4:20 AM41 °FClear.6 mph81%30.30 "Hg10 mi
3:50 AM41 °FClear.7 mph81%30.30 "Hg10 mi
3:20 AM41 °FClear.7 mph81%30.27 "Hg10 mi
2:50 AM41 °FClear.8 mph81%30.30 "Hg10 mi
2:20 AM43 °FClear.8 mph76%30.27 "Hg10 mi
Weather by CustomWeather, © 2015

See weather overviewHow to use our weather pages